Regional Weather Roundup
Issued by NWS State College, PA

Home | Current Version | Previous Version | Text Only | Print | Product List | Glossary On
Versions: 1 2 3 4 5 6 7 8 9 10 11 12 13 14 15 16 17 18 19 20 21 22 23 24 25 26 27 28 29 30 31 32 33 34 35 36 37 38 39 40 41 42 43 44 45 46 47 48 49 50
000
ASUS41 KCTP 271810
RWRCTP

REGIONAL WEATHER ROUNDUP
NATIONAL WEATHER SERVICE STATE COLLEGE PA
100 PM EST TUE JAN 27 2015

Note: "fair" indicates few or no clouds below 12,000 feet with no
significant weather and/or obstructions to visibility.

* = STATION THAT DOES NOT REPORT PRECIPITATION /E.G. RAIN...SNOW...ETC/
    THUNDER OR FOG.

PAZ002>004-007>009-013>016-020>023-029>032-271900-
WESTERN PENNSYLVANIA

CITY           SKY/WX    TMP DP  RH WIND       PRES   REMARKS
ERIE           LGT SNOW  20  13  74 N12       30.02S WCI   8
MEADVILLE      LGT SNOW  19  12  74 N12G17    29.93S WCI   7
FRANKLIN*      CLOUDY    19  10  68 N7        29.92S WCI  10
NEW CASTLE     LGT SNOW  20  14  77 NW12      29.97S WCI   8
BEAVER COUNTY  CLOUDY    21  16  79 N10       29.94S WCI  10
BUTLER*        PTSUNNY   21  12  68 NW8       29.93S WCI  12
PITTSBURGH INT FLURRIES  22  15  75 NW10      29.92F WCI  11
PITTSBURGH     CLOUDY    21  14  74 NW8       29.91S WCI  11
INDIANA*       CLOUDY    21  18  86 NW8       29.91S HAZE    WCI  12
LATROBE        FLURRIES  21  18  86 W12       29.92F WCI   9
WASHINGTON CO* CLOUDY    21  16  79 MISG      29.95S
$$

PAZ004>006-010>012-017>019-024>028-033>037-041-042-045-046-049>053-271900-
CENTRAL PENNSYLVANIA

CITY           SKY/WX    TMP DP  RH WIND       PRES   REMARKS
BRADFORD       CLOUDY    18   8  65 N13       29.82S WCI   5
DUBOIS         LGT SNOW  18  12  77 NW13      29.83S VSB 1   WCI   5
CLEARFIELD     LGT SNOW  21  15  78 W7        29.83S WCI  12
JOHNSTOWN      SNOW      18  14  84 NW13      29.78S VSB 1/2 WCI   5
ALTOONA        LGT SNOW  23  18  81 NW14      29.81S WCI  11
STATE COLLEGE  CLOUDY    25  16  68 N8        29.81S
WILLIAMSPORT   PTSUNNY   27  10  49 NW15      29.82F
SELINSGROVE    CLOUDY    28  13  53 N13       29.83F
FT INDIANTOWN  PTSUNNY   27  11  51 NW10G20   29.79F
CAPITAL CITY   CLOUDY    30  14  51 N9        29.81F
HARRISBURG     PTSUNNY   29  12  49 N15       29.80F
YORK           CLOUDY    31  18  58 N7        29.79F
$$

PAZ038>040-043-044-047-048-054-055-060>062-067>071-271900-
EASTERN PENNSYLVANIA

CITY           SKY/WX    TMP DP  RH WIND       PRES   REMARKS
SCRANTON       CLOUDY    24  10  55 NW14      29.75F WCI  12
MOUNT POCONO   CLOUDY    21   7  54 NW20G28   29.62F WCI   6
ALLENTOWN      CLOUDY    30   6  36 NW9       29.73F
QUAKERTOWN*    NOT AVBL
READING        CLOUDY    29  11  47 NW16      29.76F
LANCASTER      CLOUDY    28  15  58 NW14      29.77F
COATESVILLE    PTCLDY    28  18  64 N14       29.73F
POTTSTOWN      PTSUNNY   29   9  43 NW15      29.73F
BLUE BELL      PTSUNNY   32  12  43 NW13      29.71F
DOYLESTOWN     CLOUDY    27  12  53 NW15G24   29.69F
WILLOW GROVE   NOT AVBL
NORTH PHILA    PTSUNNY   31  12  45 NW21G28   29.72F
PHILADELPHIA   PTSUNNY   32  13  45 N16G25    29.72F
$$


USA.gov is the U.S. government's official web portal to all federal, state and local government web resources and services.